TimeEST,TemperatureF,Dew PointF,Humidity,Sea Level PressureIn,VisibilityMPH,Wind Direction,Wind SpeedMPH,Gust SpeedMPH,PrecipitationIn,Events,Conditions,WindDirDegrees,DateUTC
12:15 AM,59.0,55.4,88,29.64,10.0,South,6.9,-,N/A,,Mostly Cloudy,190,2012-12-18 05:15:00
12:35 AM,59.0,55.4,88,29.64,10.0,South,6.9,-,N/A,,Scattered Clouds,190,2012-12-18 05:35:00
12:55 AM,59.0,55.4,88,29.64,10.0,SSW,8.1,-,N/A,,Mostly Cloudy,200,2012-12-18 05:55:00
1:15 AM,60.8,55.4,82,29.65,10.0,SSW,6.9,-,N/A,,Overcast,210,2012-12-18 06:15:00
1:35 AM,59.0,55.4,88,29.65,10.0,SSW,9.2,-,N/A,,Overcast,200,2012-12-18 06:35:00
1:55 AM,59.0,55.4,88,29.64,10.0,SSW,11.5,16.1,N/A,,Overcast,200,2012-12-18 06:55:00
2:15 AM,59.0,55.4,88,29.64,10.0,SSW,10.4,-,N/A,,Mostly Cloudy,210,2012-12-18 07:15:00
2:35 AM,59.0,55.4,88,29.65,10.0,SSW,8.1,-,N/A,,Scattered Clouds,210,2012-12-18 07:35:00
2:55 AM,57.2,55.4,94,29.66,10.0,SSW,6.9,-,N/A,,Scattered Clouds,210,2012-12-18 07:55:00
3:15 AM,57.2,55.4,94,29.65,10.0,SSW,8.1,-,N/A,,Scattered Clouds,210,2012-12-18 08:15:00
3:35 AM,57.2,55.4,94,29.64,10.0,SSW,8.1,-,N/A,,Clear,210,2012-12-18 08:35:00
3:55 AM,57.2,55.4,94,29.64,10.0,SSW,8.1,-,N/A,,Clear,210,2012-12-18 08:55:00
4:15 AM,57.2,55.4,94,29.64,10.0,SSW,9.2,-,N/A,,Clear,210,2012-12-18 09:15:00
4:35 AM,57.2,55.4,94,29.64,10.0,SW,6.9,-,N/A,,Clear,220,2012-12-18 09:35:00
4:55 AM,57.2,55.4,94,29.63,10.0,SSW,5.8,-,N/A,,Clear,210,2012-12-18 09:55:00
5:15 AM,57.2,55.4,94,29.63,10.0,SSW,5.8,-,N/A,,Clear,210,2012-12-18 10:15:00
5:35 AM,55.4,55.4,100,29.63,10.0,SSW,4.6,-,N/A,,Clear,200,2012-12-18 10:35:00
5:55 AM,55.4,55.4,100,29.63,10.0,SSW,5.8,-,N/A,,Clear,210,2012-12-18 10:55:00
6:15 AM,55.4,55.4,100,29.64,10.0,SSW,8.1,-,N/A,,Clear,200,2012-12-18 11:15:00
6:35 AM,55.4,55.4,100,29.64,10.0,SSW,6.9,-,N/A,,Clear,200,2012-12-18 11:35:00
6:55 AM,55.4,55.4,100,29.66,10.0,SSW,8.1,-,N/A,,Mostly Cloudy,210,2012-12-18 11:55:00
7:15 AM,55.4,55.4,100,29.66,10.0,SSW,9.2,-,N/A,,Mostly Cloudy,210,2012-12-18 12:15:00
7:35 AM,55.4,55.4,100,29.67,10.0,SSW,8.1,-,N/A,,Mostly Cloudy,210,2012-12-18 12:35:00
7:55 AM,55.4,55.4,100,29.67,10.0,SW,8.1,-,N/A,,Scattered Clouds,220,2012-12-18 12:55:00
8:15 AM,55.4,55.4,100,29.67,10.0,SW,9.2,-,N/A,,Clear,220,2012-12-18 13:15:00
8:35 AM,57.2,55.4,94,29.67,10.0,SW,11.5,-,N/A,,Clear,220,2012-12-18 13:35:00
8:55 AM,57.2,55.4,94,29.67,10.0,WSW,9.2,16.1,N/A,,Scattered Clouds,240,2012-12-18 13:55:00
9:15 AM,59.0,55.4,88,29.67,10.0,WSW,15.0,-,N/A,,Scattered Clouds,250,2012-12-18 14:15:00
9:35 AM,59.0,55.4,88,29.67,10.0,WSW,9.2,-,N/A,,Mostly Cloudy,250,2012-12-18 14:35:00
9:55 AM,59.0,57.2,94,29.67,10.0,WSW,11.5,-,N/A,,Scattered Clouds,250,2012-12-18 14:55:00
10:15 AM,60.8,55.4,82,29.67,10.0,WSW,11.5,-,N/A,,Scattered Clouds,240,2012-12-18 15:15:00
10:35 AM,62.6,55.4,77,29.66,10.0,West,10.4,-,N/A,,Scattered Clouds,260,2012-12-18 15:35:00
10:55 AM,62.6,55.4,77,29.66,10.0,West,10.4,18.4,N/A,,Scattered Clouds,280,2012-12-18 15:55:00
11:15 AM,62.6,55.4,77,29.66,10.0,WSW,11.5,-,N/A,,Scattered Clouds,250,2012-12-18 16:15:00
11:35 AM,62.6,53.6,72,29.65,10.0,West,11.5,-,N/A,,Scattered Clouds,270,2012-12-18 16:35:00
11:55 AM,62.6,53.6,72,29.65,10.0,WNW,12.7,-,N/A,,Scattered Clouds,290,2012-12-18 16:55:00
12:15 PM,62.6,51.8,68,29.64,10.0,West,9.2,-,N/A,,Mostly Cloudy,270,2012-12-18 17:15:00
12:35 PM,62.6,48.2,59,29.63,10.0,West,12.7,19.6,N/A,,Mostly Cloudy,270,2012-12-18 17:35:00
12:55 PM,62.6,48.2,59,29.63,10.0,West,8.1,-,N/A,,Mostly Cloudy,270,2012-12-18 17:55:00
1:15 PM,62.6,46.4,55,29.63,10.0,West,18.4,25.3,N/A,,Mostly Cloudy,270,2012-12-18 18:15:00
1:35 PM,60.8,48.2,63,29.63,10.0,West,9.2,17.3,N/A,,Mostly Cloudy,270,2012-12-18 18:35:00
1:55 PM,60.8,50.0,68,29.64,10.0,West,15.0,20.7,N/A,Rain,Light Rain,280,2012-12-18 18:55:00
2:15 PM,57.2,51.8,82,29.65,10.0,WSW,6.9,-,N/A,,Mostly Cloudy,240,2012-12-18 19:15:00
2:35 PM,59.0,51.8,77,29.65,10.0,WSW,6.9,-,N/A,,Mostly Cloudy,240,2012-12-18 19:35:00
2:55 PM,59.0,51.8,77,29.65,10.0,WSW,6.9,-,N/A,,Mostly Cloudy,240,2012-12-18 19:55:00
3:15 PM,60.8,51.8,72,29.65,10.0,WSW,11.5,-,N/A,,Mostly Cloudy,240,2012-12-18 20:15:00
3:35 PM,60.8,51.8,72,29.65,10.0,West,6.9,-,N/A,,Clear,270,2012-12-18 20:35:00
3:55 PM,60.8,48.2,63,29.66,10.0,West,11.5,17.3,N/A,,Clear,270,2012-12-18 20:55:00
4:15 PM,60.8,46.4,59,29.67,10.0,West,6.9,-,N/A,,Clear,270,2012-12-18 21:15:00
4:35 PM,60.8,46.4,59,29.68,10.0,West,13.8,-,N/A,Rain,Light Rain,260,2012-12-18 21:35:00
4:55 PM,57.2,46.4,67,29.69,10.0,West,8.1,-,N/A,,Scattered Clouds,280,2012-12-18 21:55:00
5:15 PM,57.2,46.4,67,29.70,10.0,West,6.9,-,N/A,,Mostly Cloudy,270,2012-12-18 22:15:00
5:35 PM,55.4,44.6,67,29.71,10.0,West,8.1,-,N/A,,Scattered Clouds,270,2012-12-18 22:35:00
5:55 PM,55.4,44.6,67,29.72,10.0,West,8.1,-,N/A,,Scattered Clouds,270,2012-12-18 22:55:00
6:15 PM,55.4,42.8,63,29.73,10.0,West,9.2,16.1,N/A,,Scattered Clouds,280,2012-12-18 23:15:00
6:35 PM,53.6,42.8,67,29.74,10.0,West,6.9,-,N/A,,Clear,270,2012-12-18 23:35:00
6:55 PM,53.6,42.8,67,29.75,10.0,West,5.8,-,N/A,,Clear,270,2012-12-18 23:55:00
7:15 PM,53.6,42.8,67,29.77,10.0,West,8.1,-,N/A,,Clear,260,2012-12-19 00:15:00
7:35 PM,53.6,42.8,67,29.79,10.0,West,9.2,-,N/A,,Clear,270,2012-12-19 00:35:00
7:55 PM,53.6,41.0,62,29.80,10.0,West,8.1,-,N/A,,Clear,280,2012-12-19 00:55:00
8:15 PM,51.8,41.0,67,29.81,10.0,West,9.2,-,N/A,,Clear,270,2012-12-19 01:15:00
8:55 PM,50.0,41.0,71,29.82,10.0,West,6.9,-,N/A,,Clear,270,2012-12-19 01:55:00
9:15 PM,50.0,39.2,66,29.83,10.0,West,9.2,-,N/A,,Clear,280,2012-12-19 02:15:00
9:35 PM,50.0,39.2,66,29.84,10.0,West,8.1,-,N/A,,Clear,280,2012-12-19 02:35:00
9:55 PM,48.2,39.2,71,29.85,10.0,West,8.1,-,N/A,,Clear,270,2012-12-19 02:55:00
10:15 PM,48.2,37.4,66,29.86,10.0,West,9.2,-,N/A,,Clear,270,2012-12-19 03:15:00
10:55 PM,48.2,37.4,66,29.86,10.0,West,5.8,-,N/A,,Clear,270,2012-12-19 03:55:00
11:15 PM,46.4,37.4,71,29.86,10.0,West,3.5,-,N/A,,Clear,270,2012-12-19 04:15:00
11:35 PM,44.6,37.4,76,29.87,10.0,West,4.6,-,N/A,,Clear,280,2012-12-19 04:35:00
11:55 PM,44.6,35.6,71,29.85,10.0,Calm,Calm,-,N/A,,Clear,0,2012-12-19 04:55:00